CW5324 Weather Reports


time (UTC)temp
C
wind
direction
speed
KPH
gust
KPH
rain 1hr
cm
rain 24hr
cm
rain mn
cm
humidity
%
barometer
mb
20260507033516 12 0.0 0.0 0.00 0.56 0.56 85
20260507032520 12 0.0 0.0 0.00 0.56 0.56 85
20260507031520 12 0.0 0.0 0.03 0.56 0.56 85
20260507030520 12 0.0 0.0 0.03 0.56 0.56 84
20260507025520 12 0.0 0.0 0.03 0.56 0.56 84
20260507024520 12 0.0 0.0 0.03 0.56 0.56 85
20260507023535 12 0.0 0.0 0.03 0.56 0.56 86
20260507022521 12 0.0 0.0 0.03 0.56 0.56 89
20260507021520 13 0.0 0.0 0.00 0.53 0.53 91
20260507020520 14 0.0 0.0 0.00 0.53 0.53 93
20260507015520 15 0.0 0.0 0.00 0.53 0.53 94
20260507014518 15 0.0 0.0 0.00 0.53 0.53 94
20260507013540 15 0.0 0.0 0.03 0.53 0.53 95
20260507012516 16 0.0 0.0 0.05 0.53 0.53 95
20260507011520 16 0.0 0.0 0.05 0.53 0.53 95
20260507010520 16 0.0 0.0 0.05 0.53 0.53 96
20260507005520 16 0.0 0.0 0.05 0.53 0.53 95
20260507004520 16 0.0 0.0 0.05 0.53 0.53 95
20260507003520 16 0.0 0.0 0.03 0.51 0.51 95
20260507002520 16 0.0 0.0 0.00 0.48 0.48 95
20260507001516 16 0.0 0.0 0.00 0.48 0.48 95
20260507000520 16 0.0 0.0 0.00 0.48 0.48 95
20260506235520 16 0.0 0.0 0.00 0.48 0.48 95
20260506234540 16 0.0 0.0 0.00 0.48 0.48 95
20260506233520 16 0.0 0.0 0.00 0.48 0.48 95
20260506232520 16 0.0 0.0 0.00 0.48 0.48 95
20260506231516 16 0.0 0.0 0.00 0.48 0.48 94
20260506230515 16 0.0 0.0 0.00 0.48 0.48 94
20260506225520 16 0.0 0.0 0.03 0.48 0.48 94
20260506224520 16 0.0 0.0 0.08 0.48 0.48 94
20260506223520 16 0.0 0.0 0.10 0.48 0.48 94
20260506222640 16 0.0 0.0 0.10 0.48 0.48 94
20260506221600 16 0.0 0.0 0.10 0.48 0.48 94
20260506220516 16 0.0 0.0 0.10 0.48 0.48 94
20260506215516 16 0.0 0.0 0.10 0.46 0.46 93
20260506214520 16 0.0 0.0 0.08 0.41 0.41 93
20260506213520 16 0.0 0.0 0.08 0.38 0.38 93
20260506212520 16 0.0 0.0 0.08 0.38 0.38 93
20260506211520 16 0.0 0.0 0.13 0.38 0.38 93
20260506210520 16 0.0 0.0 0.13 0.38 0.38 93
20260506205515 16 0.0 0.0 0.10 0.36 0.36 93
20260506204520 16 0.0 0.0 0.10 0.33 0.33 92
20260506203541 16 0.0 0.0 0.08 0.30 0.30 92
20260506202520 16 0.0 0.0 0.08 0.30 0.30 92
20260506201520 16 0.0 0.0 0.03 0.25 0.25 92
20260506200538 16 0.0 0.0 0.08 0.25 0.25 91
20260506195520 16 0.0 0.0 0.08 0.25 0.25 91
20260506194515 16 0.0 0.0 0.08 0.23 0.23 91
20260506193520 16 0.0 0.0 0.08 0.23 0.23 90
20260506192601 17 0.0 0.0 0.10 0.23 0.23 90
20260506191520 17 0.0 0.0 0.10 0.23 0.23 89
20260506190520 17 0.0 0.0 0.05 0.18 0.18 89
20260506185520 17 0.0 0.0 0.08 0.18 0.18 88
20260506184520 17 0.0 0.0 0.08 0.15 0.15 87
20260506183515 17 0.0 0.0 0.08 0.15 0.15 86
20260506182520 18 0.0 0.0 0.10 0.13 0.13 86
20260506181520 18 0.0 0.0 0.13 0.13 0.13 85
20260506180520 18 0.0 0.0 0.13 0.13 0.13 84
20260506175521 18 0.0 0.0 0.10 0.10 0.10 82
20260506174520 18 0.0 0.0 0.08 0.08 0.08 81
20260506173515 19 0.0 0.0 0.08 0.08 0.08 78
20260506172515 20 0.0 0.0 0.03 0.03 0.03 75
20260506171520 20 0.0 0.0 0.00 0.00 0.00 74
20260506170520 20 0.0 0.0 0.00 0.00 0.00 72
20260506165520 20 0.0 0.0 0.00 0.00 0.00 69
20260506164520 21 0.0 0.0 0.00 0.00 0.00 69
20260506163521 21 0.0 0.0 0.00 0.00 0.00 67
20260506162535 21 0.0 0.0 0.00 0.00 0.00 67
20260506161515 21 0.0 0.0 0.00 0.00 0.00 68
20260506160520 20 0.0 0.0 0.00 0.00 0.00 69
20260506155600 20 0.0 0.0 0.00 0.00 0.00 70
20260506154520 20 0.0 0.0 0.00 0.00 0.00 70
20260506153518 20 0.0 0.0 0.00 0.00 0.00 70
20260506152523 20 0.0 0.0 0.00 0.00 0.00 71
20260506151522 20 0.0 0.0 0.00 0.00 0.00 72
20260506150522 19 0.0 0.0 0.00 0.00 0.00 73
20260506145523 19 0.0 0.0 0.00 0.00 0.00 73
20260506144522 19 0.0 0.0 0.00 0.00 0.00 73
20260506143522 19 0.0 0.0 0.00 0.00 0.00 73
20260506142516 19 0.0 0.0 0.00 0.00 0.00 73
20260506141522 19 0.0 0.0 0.00 0.00 0.00 73
20260506140542 19 0.0 0.0 0.00 0.00 0.00 73
20260506135522 19 0.0 0.0 0.00 0.00 0.00 74
20260506134522 18 0.0 0.0 0.00 0.00 0.00 75
20260506133522 18 0.0 0.0 0.00 0.00 0.00 75
20260506132537 18 0.0 0.0 0.00 0.00 0.00 75
20260506131517 18 0.0 0.0 0.00 0.00 0.00 76
20260506130522 18 0.0 0.0 0.00 0.00 0.00 77
20260506125522 17 0.0 0.0 0.00 0.00 0.00 77
20260506124521 17 0.0 0.0 0.00 0.00 0.00 78
20260506123522 17 0.0 0.0 0.00 0.00 0.00 79
20260506122522 17 0.0 0.0 0.00 0.00 0.00 80
20260506121517 17 0.0 0.0 0.00 0.00 0.00 80
20260506120520 17 0.0 0.0 0.00 0.00 0.00 80
20260506115642 17 0.0 0.0 0.00 0.00 0.00 80
20260506114522 16 0.0 0.0 0.00 0.00 0.00 81
20260506113603 16 0.0 0.0 0.00 0.00 0.00 81
20260506112520 16 0.0 0.0 0.00 0.00 0.00 81
20260506111522 16 0.0 0.0 0.00 0.00 0.00 81
20260506110517 16 0.0 0.0 0.00 0.00 0.00 82
20260506105522 16 0.0 0.0 0.00 0.00 0.00 82
20260506104522 16 0.0 0.0 0.00 0.00 0.00 82
20260506103522 16 0.0 0.0 0.00 0.00 0.00 82
20260506102542 16 0.0 0.0 0.00 0.00 0.00 82
20260506101522 16 0.0 0.0 0.00 0.00 0.00 82
20260506100522 16 0.0 0.0 0.00 0.00 0.00 81
20260506095517 16 0.0 0.0 0.00 0.00 0.00 81
20260506094542 16 0.0 0.0 0.00 0.00 0.00 81
20260506093521 16 0.0 0.0 0.00 0.00 0.00 80
20260506092521 16 0.0 0.0 0.00 0.00 0.00 79
20260506091604 16 0.0 0.0 0.00 0.00 0.00 79
20260506090522 16 0.0 0.0 0.00 0.00 0.00 79
20260506085517 16 0.0 0.0 0.00 0.00 0.00 78
20260506084516 16 0.0 0.0 0.00 0.00 0.00 78
20260506083602 16 0.0 0.0 0.00 0.00 0.00 78
20260506082523 16 0.0 0.0 0.00 0.00 0.00 77
20260506081522 16 0.0 0.0 0.00 0.00 0.00 77
20260506080522 16 0.0 0.0 0.00 0.00 0.00 77
20260506072522 17 0.0 0.0 0.00 0.00 0.00 74
20260506071522 17 0.0 0.0 0.00 0.00 0.00 73
20260506070522 17 0.0 0.0 0.00 0.00 0.00 72
20260506061523 18 0.0 0.0 0.00 0.00 0.00 68
20260506060522 18 0.0 0.0 0.00 0.00 0.00 67
20260506050522 18 0.0 0.0 0.00 0.00 0.00 65
20260506044602 18 0.0 0.0 0.00 0.00 0.00 65
20260506043522 18 0.0 0.0 0.00 0.00 0.00 64
20260506042522 18 0.0 0.0 0.00 0.00 0.00 64
20260506041517 18 0.0 0.0 0.00 0.00 0.00 63
20260506040522 18 0.0 0.0 0.00 0.00 0.00 63
20260506035521 18 0.0 0.0 0.00 0.00 0.00 63
20260506034521 18 0.0 0.0 0.00 0.00 0.00 62